CW6981 Weather Reports


time (UTC)temp
F
wind
direction
speed
knots
gust
knots
rain 1hr
in
rain 24hr
in
rain mn
in
humidity
%
barometer
mb
20240222102027 30 104 0.0 0.0 0.00 0.00 0.00 78 1016.0
20240222101542 30 104 0.0 0.0 0.00 0.00 0.00 78 1016.0
20240222101037 30 104 0.0 0.0 0.00 0.00 0.00 78 1015.9
20240222100530 31 104 0.0 0.0 0.00 0.00 0.00 77 1016.0
20240222100024 31 104 0.0 0.9 0.00 0.00 0.00 77 1016.0
20240222095539 31 104 0.0 0.9 0.00 0.00 0.00 77 1015.9
20240222095032 31 104 0.0 0.0 0.00 0.00 0.00 77 1015.9
20240222094528 31 104 0.0 0.0 0.00 0.00 0.00 76 1015.7
20240222094043 31 104 0.0 0.0 0.00 0.00 0.00 77 1015.6
20240222093538 31 104 0.0 0.0 0.00 0.00 0.00 76 1015.6
20240222093042 31 104 0.0 0.0 0.00 0.00 0.00 76 1015.5
20240222092536 31 104 0.0 0.0 0.00 0.00 0.00 76 1015.2
20240222092035 32 104 0.0 0.9 0.00 0.00 0.00 76 1015.2
20240222091529 32 104 0.0 0.9 0.00 0.00 0.00 76 1015.2
20240222091039 32 104 0.0 0.0 0.00 0.00 0.00 76 1015.1
20240222090553 32 104 0.0 0.0 0.00 0.00 0.00 76 1015.2
20240222090029 32 104 0.0 0.0 0.00 0.00 0.00 76 1015.3
20240222085542 32 104 0.0 0.0 0.00 0.00 0.00 75 1015.3
20240222085112 32 104 0.0 0.0 0.00 0.00 0.00 75 1015.2
20240222084534 32 104 0.0 0.0 0.00 0.00 0.00 75 1015.1
20240222084026 33 104 0.0 0.0 0.00 0.00 0.00 75 1015.2
20240222083551 33 104 0.0 0.0 0.00 0.00 0.00 75 1015.2
20240222083104 33 104 0.0 0.0 0.00 0.00 0.00 75 1015.2
20240222082536 33 104 0.0 0.0 0.00 0.00 0.00 74 1015.2
20240222082026 33 104 0.0 0.0 0.00 0.00 0.00 73 1015.1
20240222081540 33 104 0.0 0.9 0.00 0.00 0.00 73 1015.1
20240222081032 34 104 0.0 0.9 0.00 0.00 0.00 73 1015.0
20240222080525 34 104 0.0 0.0 0.00 0.00 0.00 73 1015.0
20240222080038 34 104 0.0 0.0 0.00 0.00 0.00 72 1015.0
20240222075546 34 104 0.0 0.0 0.00 0.00 0.00 72 1015.0
20240222075030 34 104 0.0 0.0 0.00 0.00 0.00 72 1015.0
20240222074542 34 104 0.0 0.0 0.00 0.00 0.00 73 1015.1
20240222074036 34 104 0.0 0.0 0.00 0.00 0.00 73 1015.1
20240222073528 34 104 0.0 0.0 0.00 0.00 0.00 73 1015.1
20240222073040 35 104 0.0 0.0 0.00 0.00 0.00 73 1015.1
20240222072532 35 104 0.0 0.0 0.00 0.00 0.00 73 1015.2
20240222072042 35 104 0.0 0.0 0.00 0.00 0.00 72 1015.3
20240222071533 35 104 0.0 0.0 0.00 0.00 0.00 72 1015.2
20240222071044 35 104 0.0 0.0 0.00 0.00 0.00 70 1015.3
20240222070533 35 104 0.0 0.9 0.00 0.00 0.00 70 1015.1
20240222070106 35 104 0.0 0.9 0.00 0.00 0.00 70 1015.1
20240222065550 35 104 0.0 0.9 0.00 0.00 0.00 69 1015.1
20240222065038 36 104 0.0 0.9 0.00 0.00 0.00 68 1015.0
20240222064552 36 104 0.0 0.0 0.00 0.00 0.00 67 1015.1
20240222064044 36 104 0.0 0.0 0.00 0.00 0.00 67 1015.1
20240222063533 36 104 0.0 0.9 0.00 0.00 0.00 66 1015.1
20240222063039 36 104 0.0 0.9 0.00 0.00 0.00 67 1015.0
20240222062531 36 104 0.0 0.9 0.00 0.00 0.00 66 1015.0
20240222062100 36 104 0.0 0.9 0.00 0.00 0.00 65 1015.0
20240222061533 37 104 0.0 0.9 0.00 0.00 0.00 65 1015.0
20240222061044 37 104 0.0 0.9 0.00 0.00 0.00 66 1015.0
20240222060531 37 104 0.0 0.9 0.00 0.00 0.00 63 1015.0
20240222060043 37 110 0.0 1.7 0.00 0.00 0.00 62 1015.1
20240222055534 37 110 0.0 1.7 0.00 0.00 0.00 65 1015.0
20240222055030 37 54 0.9 1.7 0.00 0.00 0.00 64 1015.0
20240222054543 37 53 0.0 0.9 0.00 0.00 0.00 60 1015.1
20240222054038 38 102 0.0 0.0 0.00 0.00 0.00 58 1015.0
20240222053551 38 102 0.0 0.9 0.00 0.00 0.00 57 1015.0
20240222053024 38 102 0.0 0.9 0.00 0.00 0.00 57 1015.0
20240222052541 38 102 0.0 0.9 0.00 0.00 0.00 57 1014.9
20240222052037 39 102 0.0 0.9 0.00 0.00 0.00 56 1014.8
20240222051532 39 102 0.0 0.9 0.00 0.00 0.00 56 1014.7
20240222051035 39 102 0.0 0.9 0.00 0.00 0.00 55 1014.6
20240222050528 40 102 0.0 0.0 0.00 0.00 0.00 54 1014.5
20240222050041 40 102 0.0 0.9 0.00 0.00 0.00 54 1014.4
20240222045537 40 102 0.0 0.9 0.00 0.00 0.00 53 1014.3
20240222045051 41 102 0.0 0.0 0.00 0.00 0.00 53 1014.2
20240222044559 41 102 0.0 0.0 0.00 0.00 0.00 52 1014.1
20240222044026 41 102 0.0 0.9 0.00 0.00 0.00 52 1014.0
20240222043543 41 102 0.0 0.9 0.00 0.00 0.00 52 1013.9
20240222043024 42 102 0.0 0.9 0.00 0.00 0.00 52 1013.9
20240222042542 42 102 0.0 0.9 0.00 0.00 0.00 53 1013.9
20240222042039 43 102 0.0 0.0 0.00 0.00 0.00 53 1013.8
20240222041528 43 102 0.0 0.0 0.00 0.00 0.00 54 1013.8
20240222041031 44 102 0.0 0.0 0.00 0.00 0.00 53 1013.7
20240222040536 44 102 0.0 0.0 0.00 0.00 0.00 53 1013.5
20240222040036 44 102 0.0 0.9 0.00 0.00 0.00 52 1013.5
20240222035555 45 102 0.0 0.9 0.00 0.00 0.00 51 1013.4
20240222035031 45 102 0.0 0.0 0.00 0.00 0.00 51 1013.4
20240222034524 45 102 0.0 0.0 0.00 0.00 0.00 51 1013.4
20240222034040 46 102 0.0 0.0 0.00 0.00 0.00 51 1013.4
20240222033532 46 102 0.0 0.0 0.00 0.00 0.00 51 1013.3
20240222033027 46 102 0.0 0.0 0.00 0.00 0.00 50 1013.2
20240222032532 47 102 0.0 0.0 0.00 0.00 0.00 50 1013.1
20240222032041 47 102 0.0 0.9 0.00 0.00 0.00 50 1012.9
20240222031556 47 102 0.0 0.9 0.00 0.00 0.00 50 1012.8
20240222031029 47 102 0.0 1.7 0.00 0.00 0.00 49 1012.7
20240222030537 48 102 0.0 1.7 0.00 0.00 0.00 49 1012.7
20240222030030 48 94 0.0 3.5 0.00 0.00 0.00 48 1012.5
20240222025526 48 94 0.0 3.5 0.00 0.00 0.00 48 1012.5
20240222025040 48 152 0.0 1.7 0.00 0.00 0.00 47 1012.4
20240222024532 49 152 0.0 1.7 0.00 0.00 0.00 46 1012.3
20240222024042 49 176 0.0 1.7 0.00 0.00 0.00 43 1012.3
20240222023552 49 135 0.9 1.7 0.00 0.00 0.00 41 1012.2
20240222023043 50 103 0.0 1.7 0.00 0.00 0.00 41 1012.0
20240222022534 50 103 0.0 0.9 0.00 0.00 0.00 41 1011.9
20240222022023 51 103 0.0 0.9 0.00 0.00 0.00 40 1012.0
20240222021532 51 103 0.0 0.0 0.00 0.00 0.00 39 1011.9
20240222021043 51 103 0.0 1.7 0.00 0.00 0.00 39 1011.8
20240222020553 51 103 0.0 3.5 0.00 0.00 0.00 37 1011.7
20240222020103 51 104 0.9 4.3 0.00 0.00 0.00 34 1011.6
20240222015532 51 112 0.9 5.2 0.00 0.00 0.00 28 1011.6
20240222015023 52 110 0.9 5.2 0.00 0.00 0.00 29 1011.4
20240222014538 52 264 0.9 4.3 0.00 0.00 0.00 28 1011.1
20240222014028 52 260 1.7 4.3 0.00 0.00 0.00 28 1011.1
20240222013538 52 254 0.9 5.2 0.00 0.00 0.00 27 1011.0
20240222013028 52 244 2.6 5.2 0.00 0.00 0.00 27 1011.0
20240222012540 53 280 1.7 3.5 0.00 0.00 0.00 26 1011.0
20240222012028 53 282 0.9 3.5 0.00 0.00 0.00 25 1011.0
20240222011540 53 289 1.7 4.3 0.00 0.00 0.00 25 1010.9
20240222011037 54 264 0.9 5.2 0.00 0.00 0.00 24 1010.9
20240222010529 54 266 1.7 5.2 0.00 0.00 0.00 23 1010.8
20240222010043 55 270 0.9 3.5 0.00 0.00 0.00 23 1010.8
20240222005538 55 258 0.9 2.6 0.00 0.00 0.00 21 1010.8
20240222005030 56 269 0.9 0.9 0.00 0.00 0.00 20 1010.7
20240222004536 56 269 0.0 0.9 0.00 0.00 0.00 20 1010.5
20240222004030 56 269 0.0 2.6 0.00 0.00 0.00 19 1010.3
20240222003523 57 269 0.9 2.6 0.00 0.00 0.00 18 1010.1
20240222003039 57 270 1.7 5.2 0.00 0.00 0.00 18 1010.1
20240222002534 57 258 1.7 5.2 0.00 0.00 0.00 17 1010.0
20240222002028 58 37 0.0 3.5 0.00 0.00 0.00 17 1010.0
20240222001537 58 356 0.9 3.5 0.00 0.00 0.00 17 1010.0
20240222001033 58 250 0.0 1.7 0.00 0.00 0.00 16 1010.0
20240222000543 58 250 0.0 1.7 0.00 0.00 0.00 16 1009.9
20240222000024 59 266 0.0 1.7 0.00 0.00 0.00 16 1009.8
20240221235543 59 325 0.0 1.7 0.00 0.00 0.00 17 1009.7
20240221235035 59 260 0.0 1.7 0.00 0.00 0.00 15 1009.6
20240221234552 59 260 0.0 1.7 0.00 0.00 0.00 15 1009.5
20240221234027 59 254 0.9 1.7 0.00 0.00 0.00 15 1009.4
20240221233539 59 20 0.9 1.7 0.00 0.00 0.00 14 1009.4
20240221233032 59 271 0.9 1.7 0.00 0.00 0.00 15 1009.4
20240221232526 59 294 0.0 2.6 0.00 0.00 0.00 15 1009.2
20240221232042 59 273 0.0 2.6 0.00 0.00 0.00 15 1009.1
20240221231536 59 326 0.0 1.7 0.00 0.00 0.00 15 1009.1
20240221231029 59 340 0.0 2.6 0.00 0.00 0.00 16 1009.1
20240221230544 59 312 0.0 4.3 0.00 0.00 0.00 15 1009.0
20240221230058 60 293 0.9 4.3 0.00 0.00 0.00 16 1009.0
20240221225532 60 263 0.0 2.6 0.00 0.00 0.00 15 1009.0
20240221225024 60 75 0.0 1.7 0.00 0.00 0.00 15 1009.0
20240221224539 60 264 0.9 3.5 0.00 0.00 0.00 15 1008.9
20240221224031 60 314 0.9 5.2 0.00 0.00 0.00 15 1008.8
20240221223541 60 302 1.7 5.2 0.00 0.00 0.00 15 1008.7
20240221223048 60 71 0.9 5.2 0.00 0.00 0.00 15 1008.8
20240221222540 60 77 0.9 5.2 0.00 0.00 0.00 15 1008.7
20240221222028 61 288 0.9 5.2 0.00 0.00 0.00 15 1008.7
20240221221524 61 87 0.9 5.2 0.00 0.00 0.00 15 1008.8
20240221221039 62 250 1.7 3.5 0.00 0.00 0.00 15 1008.8
20240221220528 62 313 0.9 3.5 0.00 0.00 0.00 16 1008.7
20240221220022 62 123 0.9 4.3 0.00 0.00 0.00 17 1008.5
20240221215537 62 286 0.0 4.3 0.00 0.00 0.00 16 1008.4
20240221215026 62 277 0.9 4.3 0.00 0.00 0.00 16 1008.4
20240221214537 62 306 0.9 5.2 0.00 0.00 0.00 17 1008.3
20240221214049 62 264 1.7 6.1 0.00 0.00 0.00 17 1008.3
20240221213538 63 303 0.9 6.1 0.00 0.00 0.00 16 1008.2
20240221213049 63 302 0.9 5.2 0.00 0.00 0.00 18 1008.2
20240221212543 63 258 1.7 5.2 0.00 0.00 0.00 18 1008.1
20240221212034 63 51 0.9 3.5 0.00 0.00 0.00 18 1008.1
20240221211527 63 331 0.9 3.5 0.00 0.00 0.00 17 1008.0
20240221211039 63 259 0.9 4.3 0.00 0.00 0.00 18 1008.0
20240221210536 63 272 0.9 4.3 0.00 0.00 0.00 17 1007.9
20240221210028 63 271 1.7 5.2 0.00 0.00 0.00 16 1008.0
20240221205540 63 351 1.7 5.2 0.00 0.00 0.00 16 1008.0
20240221205029 63 245 0.9 6.1 0.00 0.00 0.00 16 1008.0
20240221204536 63 148 0.9 6.1 0.00 0.00 0.00 16 1008.0
20240221204028 63 266 1.7 5.2 0.00 0.00 0.00 16 1007.9
20240221203538 63 266 0.9 5.2 0.00 0.00 0.00 16 1008.0
20240221203054 63 60 0.0 2.6 0.00 0.00 0.00 17 1008.0
20240221202528 63 271 0.9 2.6 0.00 0.00 0.00 17 1008.0
20240221202028 63 314 0.9 2.6 0.00 0.00 0.00 17 1008.1
20240221201604 63 259 0.9 2.6 0.00 0.00 0.00 16 1008.2
20240221201039 63 262 0.0 2.6 0.00 0.00 0.00 16 1008.3
20240221200542 62 281 0.9 5.2 0.00 0.00 0.00 17 1008.3
20240221200034 63 287 2.6 5.2 0.00 0.00 0.00 16 1008.3
20240221195529 62 272 0.9 5.2 0.00 0.00 0.00 17 1008.5
20240221195042 62 285 0.9 2.6 0.00 0.00 0.00 17 1008.5
20240221194531 62 322 0.9 5.2 0.00 0.00 0.00 18 1008.6
20240221194106 62 268 1.7 5.2 0.00 0.00 0.00 16 1008.8
20240221193537 62 25 0.9 3.5 0.00 0.00 0.00 17 1008.9
20240221193030 62 295 0.0 3.5 0.00 0.00 0.00 16 1008.8
20240221192541 62 48 0.9 2.6 0.00 0.00 0.00 17 1009.0
20240221192033 62 262 0.9 4.3 0.00 0.00 0.00 17 1009.1
20240221191527 62 346 0.9 4.3 0.00 0.00 0.00 16 1009.2
20240221191041 62 71 0.9 4.3 0.00 0.00 0.00 17 1009.3
20240221190530 62 264 1.7 6.1 0.00 0.00 0.00 17 1009.4
20240221190025 62 225 0.9 6.1 0.00 0.00 0.00 16 1009.4
20240221185541 62 293 0.9 2.6 0.00 0.00 0.00 17 1009.6
20240221185053 61 333 0.9 2.6 0.00 0.00 0.00 17 1009.6
20240221184546 61 23 0.9 5.2 0.00 0.00 0.00 17 1009.7
20240221184040 61 255 0.9 5.2 0.00 0.00 0.00 17 1009.8
20240221183532 61 312 0.9 3.5 0.00 0.00 0.00 17 1009.9
20240221183027 61 279 1.7 4.3 0.00 0.00 0.00 18 1010.0
20240221182524 61 65 1.7 4.3 0.00 0.00 0.00 17 1010.0
20240221182100 60 285 0.9 3.5 0.00 0.00 0.00 18 1010.2
20240221181532 60 263 0.9 3.5 0.00 0.00 0.00 19 1010.2
20240221181028 60 49 1.7 3.5 0.00 0.00 0.00 18 1010.4
20240221180600 60 218 1.7 3.5 0.00 0.00 0.00 18 1010.4
20240221180033 60 269 0.9 2.6 0.00 0.00 0.00 19 1010.6
20240221175531 59 283 0.0 2.6 0.00 0.00 0.00 19 1010.7
20240221175043 59 291 1.7 2.6 0.00 0.00 0.00 20 1010.9
20240221174526 59 258 0.9 4.3 0.00 0.00 0.00 19 1010.9
20240221174041 58 8 0.9 4.3 0.00 0.00 0.00 20 1011.0
20240221173531 58 263 1.7 3.5 0.00 0.00 0.00 19 1011.0
20240221173037 57 336 0.9 4.3 0.00 0.00 0.00 20 1011.1
20240221172530 57 53 1.7 4.3 0.00 0.00 0.00 20 1011.2
20240221172040 56 302 1.7 4.3 0.00 0.00 0.00 21 1011.3
20240221171531 55 15 1.7 3.5 0.00 0.00 0.00 22 1011.4
20240221171043 54 261 0.9 5.2 0.00 0.00 0.00 25 1011.6
20240221170535 53 272 0.9 5.2 0.00 0.00 0.00 24 1011.7
20240221170104 52 294 0.9 3.5 0.00 0.00 0.00 30 1011.7
20240221165536 51 84 0.0 1.7 0.00 0.00 0.00 37 1012.0
20240221165025 50 83 0.0 3.5 0.00 0.00 0.00 42 1011.9
20240221164536 49 83 0.9 3.5 0.00 0.00 0.00 47 1012.0
20240221164028 47 100 0.9 3.5 0.00 0.00 0.00 49 1012.1
20240221163558 46 101 0.9 1.7 0.00 0.00 0.00 50 1012.1
20240221163026 46 101 0.9 1.7 0.00 0.00 0.00 51 1012.2
20240221162601 45 101 0.0 0.9 0.00 0.00 0.00 53 1012.3
20240221162032 44 101 0.0 0.9 0.00 0.00 0.00 55 1012.4
20240221161526 43 101 0.0 1.7 0.00 0.00 0.00 57 1012.4
20240221161035 42 101 0.0 1.7 0.00 0.00 0.00 59 1012.5
20240221160545 41 101 0.0 1.7 0.00 0.00 0.00 62 1012.5
20240221160036 40 50 0.0 0.9 0.00 0.00 0.00 64 1012.6
20240221155529 39 50 0.0 0.9 0.00 0.00 0.00 67 1012.7
20240221155038 38 50 0.0 0.9 0.00 0.00 0.00 68 1012.8
20240221154529 37 50 0.0 0.9 0.00 0.00 0.00 71 1012.9
20240221154042 36 50 0.0 0.9 0.00 0.00 0.00 74 1012.8
20240221153531 35 50 0.0 0.9 0.00 0.00 0.00 77 1013.0
20240221153042 35 38 0.9 0.9 0.00 0.00 0.00 79 1013.0
20240221152545 34 327 0.0 0.9 0.00 0.00 0.00 80 1013.1
20240221152040 33 327 0.0 0.9 0.00 0.00 0.00 80 1013.2
20240221151538 32 327 0.0 0.9 0.00 0.00 0.00 81 1013.2
20240221151030 32 327 0.0 0.9 0.00 0.00 0.00 82 1013.1
20240221150602 31 327 0.0 0.9 0.00 0.00 0.00 82 1013.2
20240221150036 31 327 0.0 0.9 0.00 0.00 0.00 82 1013.2
20240221145539 30 327 0.0 1.7 0.00 0.00 0.00 81 1013.3
20240221145043 30 327 0.0 1.7 0.00 0.00 0.00 81 1013.3
20240221144538 30 320 0.0 0.9 0.00 0.00 0.00 80 1013.3
20240221144032 29 320 0.0 0.9 0.00 0.00 0.00 80 1013.3
20240221143545 29 314 0.0 0.9 0.00 0.00 0.00 79 1013.2
20240221143038 29 314 0.0 0.9 0.00 0.00 0.00 78 1013.1
20240221142533 29 314 0.0 0.0 0.00 0.00 0.00 78 1013.1
20240221142027 29 314 0.0 0.0 0.00 0.00 0.00 78 1013.2
20240221141543 29 314 0.0 0.9 0.00 0.00 0.00 78 1013.3
20240221141038 29 314 0.0 0.9 0.00 0.00 0.00 78 1013.2
20240221140552 30 314 0.0 0.0 0.00 0.00 0.00 78 1013.2
20240221140025 30 314 0.0 0.0 0.00 0.00 0.00 78 1013.3
20240221135541 30 314 0.0 0.0 0.00 0.00 0.00 78 1013.4
20240221135034 30 314 0.0 0.0 0.00 0.00 0.00 77 1013.4
20240221134530 30 314 0.0 0.0 0.00 0.00 0.00 77 1013.4
20240221134045 30 314 0.0 0.0 0.00 0.00 0.00 77 1013.4
20240221133538 30 314 0.0 0.0 0.00 0.00 0.00 77 1013.3
20240221133053 30 314 0.0 0.9 0.00 0.00 0.00 77 1013.4
20240221132533 30 314 0.0 0.9 0.00 0.00 0.00 77 1013.4
20240221132027 30 314 0.0 0.0 0.00 0.00 0.00 77 1013.3
20240221131543 30 314 0.0 0.0 0.00 0.00 0.00 76 1013.5
20240221131058 31 314 0.0 0.0 0.00 0.00 0.00 76 1013.6
20240221130530 31 314 0.0 0.9 0.00 0.00 0.00 76 1013.7
20240221130025 31 314 0.0 0.9 0.00 0.00 0.00 76 1013.7
20240221125540 31 314 0.0 0.0 0.00 0.00 0.00 76 1013.7
20240221125034 31 314 0.0 0.9 0.00 0.00 0.00 76 1013.6
20240221124530 31 314 0.0 0.9 0.00 0.00 0.00 76 1013.7
20240221124028 31 314 0.0 0.9 0.00 0.00 0.00 76 1013.8
20240221123542 31 314 0.0 0.0 0.00 0.00 0.00 76 1013.8
20240221123026 31 314 0.0 0.0 0.00 0.00 0.00 76 1013.8
20240221122555 31 314 0.0 1.7 0.00 0.00 0.00 76 1013.9
20240221122025 31 314 0.0 1.7 0.00 0.00 0.00 75 1014.0
20240221121540 32 314 0.0 0.0 0.00 0.00 0.00 74 1014.0
20240221121034 32 314 0.0 0.0 0.00 0.00 0.00 74 1014.1
20240221120526 32 314 0.0 0.0 0.00 0.00 0.00 74 1014.1
20240221120101 32 314 0.0 0.9 0.00 0.00 0.00 74 1014.1
20240221115554 32 314 0.0 0.9 0.00 0.00 0.00 74 1014.0
20240221115047 32 314 0.0 0.9 0.00 0.00 0.00 74 1014.0
20240221114530 32 314 0.0 0.9 0.00 0.00 0.00 74 1014.0
20240221114042 32 314 0.0 0.9 0.00 0.00 0.00 74 1014.0
20240221113534 32 314 0.0 0.9 0.00 0.00 0.00 74 1014.0
20240221113047 33 314 0.0 0.9 0.00 0.00 0.00 73 1014.1
20240221112535 33 314 0.0 0.9 0.00 0.00 0.00 73 1014.2
20240221112029 33 314 0.0 0.9 0.00 0.00 0.00 73 1014.2
20240221111541 33 314 0.0 0.9 0.00 0.00 0.00 72 1014.3
20240221111032 33 314 0.0 0.9 0.00 0.00 0.00 73 1014.3
20240221110543 33 314 0.0 0.9 0.00 0.00 0.00 72 1014.5
20240221110032 33 314 0.0 0.9 0.00 0.00 0.00 73 1014.5
20240221105545 34 314 0.0 0.9 0.00 0.00 0.00 72 1014.6
20240221105035 34 314 0.0 0.0 0.00 0.00 0.00 72 1014.6
20240221104607 34 314 0.0 0.9 0.00 0.00 0.00 72 1014.7
20240221104029 34 314 0.0 0.9 0.00 0.00 0.00 72 1014.7
20240221103542 34 314 0.0 0.9 0.00 0.00 0.00 71 1014.7
20240221103033 34 314 0.0 0.0 0.00 0.00 0.00 71 1014.8
20240221102530 34 314 0.0 0.9 0.00 0.00 0.00 71 1014.8